Location: *
(45.1961°N, 1.9694°E)
Time: 13:43:27
(UTC+00:00)

Resurs 1-3 - Pass Details

Date: 25 August 2019
Orbit: 630 x 632 km, 98.0° (Epoch: 22 September)

Event Time Altitude Azimuth Distance (km) Brightness Sun altitude
Exits shadow 20:18:55 11° 180° (S) 1,937 5.8 -16.1°
Maximum altitude 20:23:03 57° 259° (W) 743 4.1 -16.7°
Drops below altitude 10° 20:27:23 10° 339° (NNW) 2,023 7.0 -17.4°
Sets 20:29:38 0° 343° (NNW) 2,935 7.9 -17.7°
